Hourly Data Report for January 21, 2022

IQALUIT CLIMATE
NUNAVUT
Current Station Operator: ECCC - MSC

63°44'50.000" N
68°32'40.000" W
33.50 m
2402592
71321
XFB

Download Data

Hourly Data (January 2022)
Hourly Data Report for January 21, 2022
TIME
LST
Temp Definition
°C
Dew Point Definition
°C
Rel Hum Definition
%
Precip. Amount Definition
mm

Wind Dir Definition
10's deg

Wind Spd Definition
km/h
Visibility Definition
km
Stn Press Definition
kPa
Hmdx Definition


Wind Chill Definition


Weather Definition


00:00 -33.8 -37.4 70 0.0 36 6   99.99   -41 LegendNANA
01:00 -33.7 -37.4 69 0.0 36 5   100.06   -40 LegendNANA
02:00 -35.5 -39.5 67 0.0 1 5   100.11   -42 LegendNANA
03:00 -33.5 -37.2 70 0.0 34 7   100.14   -41 LegendNANA
04:00 -35.3 -39.1 68 0.5 2 2   100.17   -38 LegendNANA
05:00 -34.2 -38.0 68 0.0 32 6   100.21   -41 LegendNANA
06:00 -34.4 -38.1 69 0.0 31 5   100.21   -41 LegendNANA
07:00 -35.5 -39.5 67 0.4 6 3   100.22   -39 LegendNANA
08:00 -35.3 -39.4 66 0.0 31 6   100.32   -43 LegendNANA
09:00 -36.8 -40.8 66 0.2 2 6   100.32   -44 LegendNANA
10:00 -35.3 -39.3 67 0.0 28 2   100.32   -38 LegendNANA
11:00 -35.8 -40.0 65 0.3 5 1   100.29   -37 LegendNANA
12:00 -33.4 -37.0 69 0.0 15 2   100.29   -36 LegendNANA
13:00 -32.4 -35.9 71 0.0 13 3   100.27   -36 LegendNANA
14:00 -32.7 -36.0 72 0.0 11 2   100.24   -35 LegendNANA
15:00 -32.2 -35.5 72 0.0 13 4   100.22   -37 LegendNANA
16:00 -30.9 -34.0 74 0.0 13 5   100.18   -37 LegendNANA
17:00 -30.3 -33.7 72 0.0 14 10   100.12   -40 LegendNANA
18:00 -27.8 -30.8 76 0.0 15 12   100.06   -37 LegendNANA
19:00 -26.1 -28.9 77 0.0 12 18   99.95   -38 LegendNANA
20:00 -25.7 -28.8 75 0.0 12 20   99.83   -38 LegendNANA
21:00 -24.7 -28.4 71 0.0 12 23   99.70   -37 LegendNANA
22:00 -23.8 -27.6 71 0.0 12 23   99.60   -36 LegendNANA
23:00 -22.4 -25.3 77 0.0 13 34   99.46   -36 LegendNANA

Notes on Data Quality.

Legend

  • E = Estimated
  • M = Missing
  • NA = Not Available*
  • [empty] = Indicates an unobserved value
Date modified: